Regional Weather Roundup
Issued by NWS Wilmington, NC

Home | Current Version | Previous Version | Text Only | Print | Product List | Glossary On
Versions: 1 2 3 4 5 6 7 8 9 10 11 12 13 14 15 16 17 18 19 20 21 22 23 24 25 26 27
000
ASUS42 KILM 160410
RWRILM
RWRILM
REGIONAL HOURLY WEATHER ROUNDUP
NATIONAL WEATHER SERVICE WILMINGTON NC
1200 AM EDT WED APR 16 2014

NOTE: "FAIR" INDICATES FEW OR NO CLOUDS BELOW 12,000 FEET WITH NO
SIGNIFICANT WEATHER AND/OR OBSTRUCTIONS TO VISIBILITY.

...............WFO WILMINGTON COUNTY WARNING AREA...............

......COASTAL NC AND SC COUNTIES......

CITY           SKY/WX    TMP DP  RH WIND       PRES   REMARKS
WILMINGTON     CLOUDY    49  45  86 N23G36    29.90R
SOUTHPORT      CLOUDY    46  40  80 NW23G33   29.90R
N MYRTLE BEACH MOCLDY    48  37  65 N18G32    29.92R
MYRTLE BEACH   MOCLDY    48  39  71 N29       29.94R

......INLAND NC AND SC COUNTIES.......

CITY           SKY/WX    TMP DP  RH WIND       PRES   REMARKS
LUMBERTON      PTCLDY    45  33  63 N15       29.98R
ELIZABETHTOWN  MOCLDY    45  41  85 NW9G20    29.97R
WHITEVILLE     MOCLDY    46  37  70 N7G17     29.95R
FLORENCE       PTCLDY    47  36  65 N17G26    29.99R
DARLINGTON     CLEAR     45  30  57 N18G25    30.03R

....................REST OF NORTH CAROLINA......................

.........EASTERN NC.........

CITY           SKY/WX    TMP DP  RH WIND       PRES   REMARKS
CAPE HATTERAS  HVY RAIN  51  49  92 N16G38    29.80R FOG
JACKSONVILLE   CLOUDY    48  45  87 W12G17    29.91R
MOREHEAD CITY  HVY RAIN  52  49  89 N21G31    29.84R FOG
KENANSVILLE    CLOUDY    45  42  91 NW13G18   29.95R
NEW BERN       LGT RAIN  50  45  83 N18G33    29.90R
ELIZABETH CITY HVY RAIN  44  42  93 N23G32    29.92R FOG

.........CENTRAL NC.........

CITY           SKY/WX    TMP DP  RH WIND       PRES   REMARKS
RALEIGH DURHAM PTCLDY    41  30  65 N9        30.02R
ROCKY MOUNT      N/A    N/A N/A N/A MISG      29.98R
ROANOKE RAPIDS NOT AVBL
FAYETTEVILLE   CLEAR     44  34  67 NW15      29.99R
HOFFMAN        PTCLDY    43  33  68 N14G30    30.02R

.........WESTERN NC.........

CITY           SKY/WX    TMP DP  RH WIND       PRES   REMARKS
CHARLOTTE      CLEAR     38  25  59 N9        30.04R WCI  31
GREENSBORO     CLEAR     36  25  64 N8        30.03R WCI  30
HICKORY        NOT AVBL
BOONE          NOT AVBL
ASHEVILLE      NOT AVBL

.....................REST OF SOUTH CAROLINA.....................

.........EASTERN SC.........

CITY           SKY/WX    TMP DP  RH WIND       PRES   REMARKS
CHARLESTON     CLOUDY    55  45  67 N21G26    29.98R
BEAUFORT MCAS  CLEAR     54  42  64 N12       29.96R
HILTON HEAD    NOT AVBL

.........CENTRAL SC.........

CITY           SKY/WX    TMP DP  RH WIND       PRES   REMARKS
COLUMBIA       PTCLDY    48  33  56 N10       30.03R
ORANGEBURG     CLOUDY    53  36  52 N9G24     30.00R
SUMTER SHAW    CLEAR     47  36  65 N13G21    30.01R

.........WESTERN SC.........

CITY           SKY/WX    TMP DP  RH WIND       PRES   REMARKS
GREENVILLE     NOT AVBL
ROCK HILL      CLEAR     40  28  62 N14G21    30.04R WCI  32
ANDERSON       CLEAR     40  27  59 CALM      30.06R
CLEMSON        NOT AVBL
GREENWOOD      CLEAR     41  25  53 N9        30.07R


...................COASTAL AND OFFSHORE REPORTS..................

................LOCAL PIERS AND NC RESERVE................


STATION/POSITION TIME  SKY/WX   TEMP    WIND        PRES    VSBY
                                AIR SEA DIR/SP/G
                 (UTC)          (F)     (DEG/KT/KT) (MB)    (MI)
JOHNY MRCER PIER 0400            49 61  320/ 18/ 31 1011.1R
NC RESRV MASNBRO 0300            51     320/  3     1008.0S
OCEAN CREST PIER 0400               65  340/ 23/ 32 1010.2R
SPRINGMAID  PIER 0400            49 64  350/ 12/ 17 1013.5R


................COASTAL AND OFFSHORE BUOYS................


STATION/POSITION TIME  SKY/WX   TEMP    WIND        PRES    VSBY
                                AIR SEA DIR/SP/G
                 (UTC)          (F)     (DEG/KT/KT) (MB)    (MI)
DIMNDSHOAL 41025 NOT AVBL
CAPE LOOKOUT     0300            60     320/ 37/ 43 1006.2R
ONSLOW BAY 41036 0400            56 63  330/ 29/ 35 1009.3R
WVE H/P(F/S)=  7/ 8 WND WVE H/P(F/S)=  7/ 5 SWL H/P/D(F/S/D)=  3/150/ 8

5 WRITEBCH 41038 0300            53 61  340/ 23/ 31 1009.4R
MASONBORO  41110 0400               61                N/A
WVE H/P(F/S)=  5/ 8 WND WVE H/P(F/S)=  5/ 8

WILM HARBR 41108 0400               61                N/A
WVE H/P(F/S)=  6/ 5 WND WVE H/P(F/S)=  7/ 5

27WRITEBCH 41037 0300            54     350/ 33/ 39 1007.6R
FRYING PAN 41013 0400            55 66  340/ 31/ 39 1009.5R
WVE H/P(F/S)=  7/ 8 WND WVE H/P(F/S)=  7/ 4 SWL H/P/D(F/S/D)=  3/130/ 8

SUNST NRSH 41024 0300            51     350/ 23/ 27 1011.2
CAPRS NRSH 41029 0300                    10/ 19/ 25   N/A
EDISTO     41004 NOT AVBL


..........OFFSHORE BUOYS BEYOND 100 NM OFFSHORE...........
.....IN A TRIANGLE---HAT TO BERMUDA TO BAHAMAS TO HAT.....


STATION/POSITION TIME  SKY/WX   TEMP    WIND        PRES    VSBY
                                AIR SEA DIR/SP/G
                 (UTC)          (F)     (DEG/KT/KT) (MB)    (MI)
150E HAT   41001 NOT AVBL
W BERMUDA  41048 0350            69 69  160/ 12/ 16 1018.8S
WVE H/P(F/S)=  8/10 WND WVE H/P(F/S)=  3/ 6 SWL H/P/D(F/S/D)=  7/100/10

ATLANTIC S 41049 0338            71 75  130/ 14/ 19 1020.7R
WVE H/P(F/S)=  9/10 WND WVE H/P(F/S)=  5/ 6 SWL H/P/D(F/S/D)=  7/ 80/10

E BAHAMAS  41046 NOT AVBL
NE BAHAMAS 41047 0306            73 74  130/ 14/ 16 1018.5
WVE H/P(F/S)=  5/ 8 WND WVE H/P(F/S)=  3/ 6 SWL H/P/D(F/S/D)=  3/ 80/ 8

120E CANVRL41010 0400            76 76  180/ 12/ 16 1012.4F
WVE H/P(F/S)=  5/ 6 WND WVE H/P(F/S)=  3/ 6 SWL H/P/D(F/S/D)=  3/100/ 8


END



USA.gov is the U.S. government's official web portal to all federal, state and local government web resources and services.